Wind_Speed
13 9 7 7 7 6 7 8 9 9 10 8 8 7 9 10 12 13 13 11 11 12 13 13 14 13 13 13 13 15 16 17 17 17 16 15 15 13 12 11 11 11 11
7 8 7 5 6 5 6 6 9 9 9 11 11 8 8 9 11 11 12 13 14 14 14 14 14 14 13 14 14 16 17 18 19 19 19 18 17 16 13 12 11 10 10
8 5 6 6 7 5 6 6 7 9 10 11 11 11 12 11 10 10 10 11 12 13 14 13 13 13 12 13 15 16 17 18 18 20 21 21 19 17 15 13 12 10 7
9 10 8 6 5 6 5 6 7 8 8 9 10 10 10 9 9 9 9 10 11 11 12 12 12 11 13 14 15 16 17 17 17 19 21 24 22 19 17 14 11 10 4
7 5 6 5 6 7 6 6 7 6 7 8 9 10 9 8 7 8 8 8 9 10 10 10 10 12 13 14 15 16 17 18 17 19 21 24 24 21 19 15 11 10 7
7 8 6 6 7 7 5 6 4 4 4 4 6 7 9 8 7 6 7 8 7 8 7 7 8 8 10 12 13 16 17 17 18 18 20 22 25 24 22 17 12 8 7
5 3 5 6 7 6 3 4 4 4 3 5 5 4 7 7 6 4 4 5 5 6 6 6 7 8 9 11 13 15 17 16 16 17 19 21 23 24 25 20 15 11 8
4 3 5 4 4 3 4 4 4 5 5 6 5 6 4 4 4 3 3 3 4 6 7 7 6 7 8 10 14 15 17 19 16 16 19 20 21 23 23 23 17 14 11
5 4 5 3 3 3 3 3 4 5 5 7 7 6 3 4 4 5 3 2 3 5 3 2 3 5 6 9 13 16 18 18 16 16 18 20 20 20 21 21 20 17 14
6 5 6 6 5 3 4 3 2 4 7 7 6 8 8 9 3 3 5 4 4 3 1 2 3 5 6 8 11 15 18 19 18 15 17 19 19 18 18 19 18 19 17
5 6 7 7 6 4 4 4 2 3 4 7 8 6 7 9 9 7 4 5 3 1 2 4 3 6 6 6 9 14 17 20 18 17 18 17 18 19 17 16 17 16 17
4 5 3 4 7 6 6 6 4 4 1 2 4 6 6 6 8 7 5 6 4 4 4 4 5 7 7 6 9 14 17 20 20 16 16 16 16 20 18 13 15 15 14
4 5 5 5 3 7 6 8 8 6 5 3 2 1 3 4 4 6 7 7 6 6 4 5 5 5 5 6 11 15 18 20 19 15 16 17 17 19 19 12 12 12 13
6 4 4 5 4 5 5 6 9 10 8 7 6 6 5 4 3 4 5 6 5 4 5 5 6 5 7 10 14 17 20 21 19 15 15 17 18 20 20 13 11 11 11
8 5 4 4 4 4 4 6 9 9 10 9 9 9 9 8 8 7 6 6 5 7 8 6 7 10 13 15 18 19 19 20 17 15 14 16 19 21 20 16 10 10 10
5 8 7 5 9 7 8 7 7 9 9 10 10 10 10 10 11 11 11 11 10 8 10 10 11 15 16 16 17 21 21 21 17 16 16 18 20 21 18 15 13 10 10
7 4 4 5 4 5 8 7 8 10 11 10 9 8 8 8 10 11 13 13 12 13 11 13 16 18 18 20 21 22 19 17 15 16 17 19 20 18 16 13 13 11 9
9 8 8 8 6 6 6 6 6 8 9 9 9 9 8 8 7 9 10 12 12 13 13 14 14 15 18 16 16 15 15 15 17 16 17 17 15 15 15 14 15 16 15
12 11 11 11 7 8 7 6 7 8 8 8 9 9 10 10 10 8 8 10 9 11 13 14 14 15 18 15 16 16 17 17 16 17 16 16 15 17 15 17 18 20 18
14 12 10 11 10 11 11 10 10 10 12 12 11 12 11 12 11 12 12 11 12 12 14 14 15 16 15 16 16 15 16 15 19 21 18 18 19 18 17 18 19 20 18
12 12 11 11 12 12 11 11 11 11 12 14 14 14 14 12 13 13 14 13 14 15 16 15 16 17 16 15 15 16 17 20 20 20 23 23 21 22 18 18 19 15 16
12 12 11 12 12 15 15 15 14 13 12 12 12 12 13 13 14 15 15 15 16 17 17 16 16 17 19 17 17 18 20 21 24 19 27 30 22 19 17 14 16 16 16
4 3 6 10 12 14 15 15 14 13 14 15 14 14 14 16 17 17 18 19 20 21 21 21 23 23 24 23 26 29 24 26 26 28 28 24 21 18 18 16 17 17 14
7 3 3 4 5 5 8 10 12 13 15 17 17 17 17 19 20 20 21 22 23 23 24 24 26 28 28 28 28 27 30 31 29 23 20 22 19 21 20 22 20 16 12
17 15 14 9 8 7 7 8 10 13 15 19 17 18 17 17 18 21 22 22 22 23 23 25 26 27 29 28 29 30 26 20 25 23 19 22 19 22 24 23 20 18 22
10 12 12 9 7 5 6 6 8 4 5 8 9 11 13 14 17 18 19 18 19 19 21 22 22 20 20 22 23 23 23 21 22 22 16 16 20 21 21 17 17 21 21
Wind_Direction
115 107 115 108 108 85 87 76 64 56 54 72 80 67 57 52 49 50 55 63 69 72 72 71 70 68 63 54 44 37 30 22 15 5 359 352 347 340 333 330 315 308 309
119 114 114 114 122 106 88 79 62 61 70 71 74 73 56 53 52 56 67 70 72 74 75 76 75 70 62 53 44 38 31 26 20 13 5 359 352 345 342 335 325 314 308
124 121 119 114 132 103 93 71 53 56 64 59 55 55 54 54 57 67 71 73 75 77 78 78 76 69 61 50 39 31 25 21 18 19 16 7 2 358 356 354 351 337 304
114 116 111 110 123 123 103 65 69 65 51 39 37 38 37 49 65 79 79 79 78 80 82 81 75 64 54 43 36 29 22 16 18 18 18 16 14 12 8 6 3 0 336
142 136 114 106 121 121 104 91 89 60 41 29 26 27 45 67 75 83 86 82 83 86 87 84 76 70 59 49 42 34 26 20 15 18 19 19 22 21 22 13 28 27 32
126 123 115 105 123 124 103 93 74 66 53 27 23 32 48 74 72 87 94 94 89 84 83 81 76 64 51 40 32 27 22 19 17 15 19 20 25 26 26 24 36 37 44
127 124 114 106 122 134 128 114 68 82 53 42 70 53 56 62 62 79 92 100 95 96 96 92 81 67 51 38 27 21 22 17 15 16 20 20 22 26 29 29 34 48 49
152 119 144 120 129 119 136 111 60 68 56 55 76 58 52 59 54 52 64 81 91 111 102 98 74 53 44 41 37 27 22 19 22 21 21 19 20 21 25 32 35 36 44
178 174 171 163 156 156 138 121 63 63 66 60 62 58 47 35 56 53 56 54 143 135 116 78 18 6 27 35 33 27 22 20 17 17 17 16 16 16 20 25 35 40 37
188 211 180 181 178 167 176 169 96 89 74 70 64 72 63 47 36 56 40 49 160 187 256 331 359 352 5 19 24 19 19 17 14 12 9 7 11 10 13 19 25 35 39
205 183 170 178 198 211 207 194 167 123 87 76 74 76 57 50 49 49 41 46 74 61 5 -0 345 349 350 354 6 8 8 8 3 5 7 14 16 12 5 10 15 22 31
219 202 202 189 216 217 213 207 201 198 157 92 78 68 68 58 47 44 34 43 58 15 346 327 315 329 343 335 350 356 357 360 1 357 0 360 6 7 3 357 7 13 16
224 236 229 228 215 198 212 216 225 227 221 236 255 354 24 40 34 32 33 16 14 7 8 359 350 320 318 325 339 346 350 352 354 349 347 344 345 352 356 349 353 2 10
222 236 240 226 202 212 222 226 220 229 240 253 259 264 282 305 327 344 353 1 346 343 340 355 0 7 338 337 338 341 345 350 353 338 332 334 339 344 352 347 333 347 358
206 209 224 226 217 218 227 230 228 240 238 249 258 255 263 275 284 291 297 305 318 313 312 312 325 321 325 329 327 330 333 333 338 330 327 329 335 340 346 349 329 331 340
231 234 252 278 246 252 257 251 235 234 238 249 251 249 256 272 277 276 275 276 280 284 291 297 306 311 315 316 319 320 319 315 316 309 315 322 326 331 341 349 352 320 325
218 231 232 252 248 259 253 255 235 235 247 251 243 242 253 268 277 280 271 269 268 273 280 288 298 303 307 312 316 321 320 319 315 311 310 314 318 324 333 338 344 345 332
221 242 242 256 265 272 259 245 231 242 248 245 250 244 250 261 277 276 266 267 269 275 282 291 297 306 311 317 323 330 332 328 325 326 322 318 321 326 326 327 327 321 312
242 252 250 247 259 256 260 255 246 252 250 249 250 253 265 267 264 257 260 268 275 282 288 292 302 307 316 322 325 328 327 323 330 323 328 326 321 320 315 318 316 317 314
246 244 247 240 242 245 252 260 264 268 262 261 265 265 269 272 269 262 265 266 272 274 283 288 295 301 304 313 320 328 323 322 320 321 325 320 317 319 315 311 309 315 318
237 245 250 247 245 251 251 260 263 265 259 266 270 270 274 276 273 273 277 274 275 277 281 286 290 297 301 307 309 312 316 316 322 318 324 325 322 329 333 329 324 315 316
233 241 249 253 256 249 252 256 260 264 269 266 273 273 277 278 271 265 268 274 280 284 284 285 286 289 297 303 305 308 312 313 315 315 319 321 325 325 330 334 330 317 308
198 224 250 250 255 256 258 254 256 262 269 271 276 279 276 270 271 269 268 272 278 280 282 283 285 288 292 298 301 303 303 301 304 309 312 309 318 316 321 317 329 328 305
243 250 302 286 283 286 254 255 257 257 257 257 259 264 269 273 271 271 273 274 275 276 278 281 283 285 287 292 294 296 297 300 302 306 305 304 312 311 313 315 320 325 314
249 247 256 274 278 290 290 283 276 261 260 260 259 266 269 282 297 302 291 278 277 276 274 277 278 280 285 288 290 292 293 292 296 299 296 292 307 309 312 313 316 318 316
230 229 225 228 233 249 290 315 307 296 287 288 302 308 316 322 323 316 315 314 301 299 295 292 289 290 294 296 294 286 291 287 289 295 301 289 301 308 307 305 304 309 307
Height
1612 1613 1614 1614 1615 1616 1616 1616 1616 1616 1615 1615 1615 1615 1615 1614 1613 1612 1612 1611 1611 1611 1611 1611 1611 1611 1611 1610 1609 1607 1605 1603 1600 1598 1594 1591 1588 1586 1583 1582 1579 1577 1576
1614 1614 1615 1616 1616 1617 1618 1618 1618 1618 1618 1618 1617 1617 1617 1616 1615 1614 1614 1614 1613 1613 1613 1613 1614 1613 1613 1611 1610 1608 1607 1604 1601 1598 1595 1590 1587 1583 1582 1579 1577 1575 1574
1614 1615 1616 1617 1618 1618 1619 1619 1620 1620 1620 1620 1619 1619 1618 1617 1617 1616 1616 1616 1616 1616 1616 1616 1616 1615 1614 1613 1612 1610 1608 1605 1602 1599 1595 1590 1587 1582 1580 1578 1576 1573 1572
1615 1616 1617 1618 1619 1619 1620 1620 1621 1621 1621 1621 1621 1620 1619 1619 1618 1618 1618 1618 1618 1618 1618 1618 1618 1617 1616 1614 1613 1611 1609 1606 1603 1600 1595 1592 1587 1583 1578 1577 1574 1572 1570
1616 1617 1618 1619 1619 1621 1621 1621 1622 1622 1622 1622 1621 1621 1620 1620 1620 1620 1619 1619 1619 1620 1620 1620 1620 1618 1617 1616 1615 1612 1610 1607 1604 1601 1596 1592 1588 1584 1580 1576 1574 1572 1570
1617 1618 1618 1619 1620 1622 1622 1623 1623 1623 1623 1623 1622 1622 1621 1621 1621 1621 1621 1621 1621 1621 1621 1621 1621 1620 1619 1618 1616 1614 1611 1608 1604 1602 1598 1594 1590 1585 1581 1577 1574 1573 1570
1618 1618 1620 1621 1621 1623 1623 1624 1625 1625 1624 1623 1623 1623 1623 1622 1622 1622 1623 1623 1623 1622 1622 1622 1621 1621 1620 1618 1617 1614 1611 1608 1605 1602 1599 1595 1591 1587 1583 1579 1576 1574 1572
1618 1619 1620 1621 1622 1623 1624 1625 1625 1625 1625 1624 1623 1623 1624 1625 1624 1624 1623 1624 1624 1623 1623 1623 1622 1622 1621 1619 1617 1615 1612 1608 1606 1603 1600 1597 1593 1589 1586 1582 1578 1575 1573
1617 1619 1620 1621 1623 1624 1624 1625 1625 1626 1625 1625 1624 1624 1624 1625 1624 1624 1624 1624 1624 1624 1624 1624 1623 1622 1621 1620 1618 1616 1613 1609 1607 1604 1601 1598 1595 1591 1587 1584 1581 1577 1574
1617 1618 1619 1621 1623 1624 1624 1625 1625 1626 1626 1626 1625 1625 1625 1624 1625 1625 1625 1625 1624 1625 1625 1625 1624 1623 1622 1621 1619 1616 1613 1610 1607 1604 1602 1599 1595 1592 1588 1585 1582 1579 1575
1616 1616 1618 1620 1622 1623 1624 1625 1625 1625 1627 1626 1626 1626 1626 1626 1625 1625 1626 1625 1625 1625 1625 1624 1623 1622 1621 1620 1619 1616 1613 1610 1608 1605 1602 1599 1596 1593 1589 1586 1583 1580 1577
1614 1615 1617 1618 1620 1621 1623 1624 1625 1625 1626 1627 1627 1627 1627 1627 1627 1626 1626 1625 1625 1625 1625 1624 1623 1622 1621 1620 1618 1616 1613 1610 1607 1605 1602 1599 1596 1593 1590 1587 1583 1580 1577
1615 1615 1616 1617 1618 1619 1621 1623 1624 1625 1625 1626 1626 1627 1626 1626 1627 1626 1626 1626 1625 1625 1624 1623 1622 1621 1621 1619 1617 1615 1612 1610 1607 1604 1601 1599 1596 1593 1589 1586 1583 1580 1577
1615 1615 1615 1617 1617 1618 1619 1621 1622 1623 1624 1624 1625 1626 1626 1626 1626 1626 1626 1626 1626 1625 1624 1623 1622 1621 1620 1619 1616 1614 1611 1608 1606 1603 1601 1598 1595 1592 1589 1585 1582 1580 1577
1613 1613 1615 1616 1617 1617 1618 1619 1620 1621 1622 1622 1622 1623 1624 1625 1625 1625 1625 1625 1625 1625 1624 1623 1622 1621 1619 1617 1614 1612 1609 1606 1604 1602 1599 1596 1593 1590 1587 1584 1581 1579 1576
1611 1612 1614 1615 1616 1616 1616 1617 1618 1618 1619 1619 1620 1621 1622 1622 1622 1623 1622 1622 1622 1623 1623 1621 1621 1618 1617 1615 1612 1609 1606 1604 1602 1600 1597 1594 1591 1588 1585 1582 1579 1577 1575
1610 1611 1612 1613 1614 1614 1614 1615 1615 1616 1617 1618 1619 1618 1619 1619 1620 1620 1620 1620 1620 1620 1620 1619 1616 1615 1614 1611 1609 1606 1602 1600 1599 1596 1594 1592 1589 1586 1583 1580 1578 1575 1573
1607 1609 1610 1611 1612 1612 1612 1612 1613 1613 1615 1616 1616 1616 1616 1616 1616 1616 1617 1617 1618 1617 1616 1614 1614 1612 1610 1608 1605 1603 1600 1599 1595 1594 1591 1589 1587 1584 1581 1578 1576 1573 1571
1603 1605 1607 1608 1609 1610 1610 1610 1611 1612 1612 1614 1614 1614 1615 1615 1614 1614 1614 1614 1615 1614 1613 1612 1611 1609 1606 1605 1603 1601 1598 1596 1594 1591 1589 1586 1584 1582 1579 1576 1573 1570 1567
1600 1601 1603 1605 1605 1607 1608 1608 1609 1609 1611 1612 1613 1613 1612 1612 1612 1611 1611 1611 1611 1611 1610 1609 1608 1606 1604 1602 1600 1598 1596 1594 1590 1588 1586 1583 1581 1578 1575 1573 1569 1566 1563
1597 1599 1600 1602 1603 1604 1604 1605 1606 1606 1607 1607 1608 1609 1608 1609 1610 1608 1608 1608 1608 1607 1606 1606 1605 1603 1602 1600 1598 1596 1593 1590 1588 1584 1581 1579 1577 1573 1571 1568 1565 1562 1560
1592 1595 1596 1598 1599 1599 1600 1601 1602 1603 1603 1603 1604 1604 1605 1605 1605 1605 1604 1604 1605 1603 1602 1602 1602 1600 1598 1596 1595 1593 1590 1586 1582 1581 1576 1573 1572 1570 1568 1565 1563 1560 1557
1589 1590 1592 1593 1594 1595 1596 1597 1598 1599 1600 1601 1600 1601 1601 1601 1600 1600 1601 1601 1600 1600 1599 1598 1596 1595 1593 1592 1590 1587 1585 1583 1579 1576 1572 1568 1568 1566 1564 1563 1559 1556 1554
1586 1587 1589 1590 1590 1591 1592 1593 1594 1594 1595 1595 1595 1595 1595 1595 1595 1595 1595 1594 1595 1594 1593 1592 1590 1590 1588 1586 1585 1583 1579 1576 1573 1572 1569 1563 1565 1561 1559 1557 1555 1553 1551
1583 1583 1584 1586 1587 1588 1589 1589 1590 1590 1591 1591 1592 1591 1591 1590 1591 1590 1589 1588 1589 1588 1587 1585 1584 1582 1582 1580 1579 1576 1575 1574 1570 1569 1568 1562 1560 1557 1553 1551 1549 1549 1547
1578 1577 1578 1581 1583 1583 1586 1586 1588 1587 1588 1589 1589 1589 1588 1587 1586 1585 1584 1583 1582 1582 1580 1579 1578 1577 1576 1574 1572 1571 1570 1568 1566 1563 1563 1559 1557 1555 1549 1549 1547 1544 1541